82P/Gehrels 3 (2018)

Japanese version
Home page
Updated on July 11, 2020

---------------------------------------------------------------------

* Profile

* Orbital Elements

Epoch 2018 June 11.0 TT = JDT 2458280.5                                         
T 2018 June 28.61456 TT                                 Rudenko                 
q   3.6342297            (2000.0)            P               Q                  
n   0.11693149     Peri.  227.19717     -0.28403201     -0.95866528             
a   4.1417295      Node   239.31113     +0.88534196     -0.25544640             
e   0.1225333      Incl.    1.12822     +0.36809705     -0.12533166             
P   8.43                                                                        
From 113 observations 1975 Oct. 30-2020 May 20, mean residual 0".6.             

* Magnitudes Graph

        m1 = 6.5 + 5 log d + 20.0 log r

---------------------------------------------------------------------

The orbital elements are published on M.P.E.C. 2020-L06.
The magnitudes graphs are made with Comet for Windows.

---------------------------------------------------------------------

Copyright(C) Seiichi Yoshida (comet@aerith.net). All rights reserved.